Theta_e
300 300 299 299 300 301 302 302 302 302 302 301 301 301 301 300 300 301 301 301 301 300 300 300 300 300 300 300 300 300 300 300 300 300 300 301 301 301 301 301 301 301 300 299 298 297 296 295 294 294 294 293 294 294 294 294 295 295 295 295 295 295 295 295 295 294 295 295 294 294 293 292 292 291 291 291 290 290 290 291 291 291 291 291 291
298 298 298 298 297 298 299 301 301 302 302 302 301 302 301 301 300 300 301 301 300 300 300 299 299 299 299 299 299 300 299 299 299 299 300 300 300 301 301 301 301 301 301 300 300 299 298 296 295 294 293 293 293 293 293 294 294 294 295 295 295 295 295 295 295 295 295 295 294 294 293 292 292 291 290 290 289 289 289 290 290 291 291 291 291
296 296 297 297 297 297 298 298 299 300 301 301 301 301 301 301 300 300 300 300 300 300 299 298 298 298 298 298 298 299 299 298 299 299 299 299 299 300 300 300 301 301 301 301 301 300 299 298 296 295 294 293 293 293 293 293 293 294 294 295 295 295 295 295 295 294 295 295 294 294 293 292 291 290 290 289 289 289 289 289 290 290 290 290 290
294 295 295 296 296 297 297 297 297 298 299 300 300 300 301 301 300 300 299 299 298 299 299 298 298 297 297 297 297 297 298 298 298 298 298 298 298 298 299 299 300 300 300 301 301 301 300 300 299 297 296 294 293 293 292 292 293 293 294 294 294 295 295 295 295 294 294 294 294 293 293 292 291 290 290 289 288 288 288 289 289 289 289 290 289
293 293 294 294 295 295 295 296 297 296 297 297 298 299 299 300 300 300 299 299 298 297 297 297 297 297 297 297 296 296 296 296 297 297 297 297 297 297 298 298 299 299 299 300 300 300 300 300 300 299 297 296 295 293 293 292 292 293 293 293 294 294 294 294 294 294 294 294 294 293 292 291 290 290 289 289 288 288 288 288 288 289 289 289 289
292 292 292 292 293 293 293 294 295 295 296 296 296 296 297 298 298 299 299 299 298 298 297 296 296 296 296 296 296 295 295 295 295 295 295 296 296 296 296 297 297 298 298 299 299 299 299 299 299 299 298 298 297 295 294 293 292 292 293 293 293 294 294 294 294 293 293 293 293 292 292 291 291 290 290 288 288 288 288 288 288 288 288 288 288
292 291 290 290 290 291 292 292 292 293 294 294 295 295 295 296 296 297 298 298 298 298 298 297 296 295 295 295 295 295 294 294 294 294 294 294 295 295 295 296 296 297 297 298 298 298 298 298 298 298 298 298 298 297 295 294 292 292 292 292 293 293 293 293 293 293 292 292 292 292 292 291 290 289 289 288 288 288 288 288 288 288 288 288 288
291 291 290 289 289 289 289 290 290 290 291 292 293 294 294 295 295 295 296 296 297 297 298 298 297 296 295 295 295 295 294 294 293 293 293 293 293 294 294 294 295 295 296 297 297 297 298 298 298 298 298 298 298 297 296 295 293 292 292 292 292 292 293 293 293 293 292 291 291 291 291 291 290 289 288 288 288 288 288 288 288 288 288 288 288
289 289 289 289 288 288 288 288 288 289 289 289 290 291 292 293 294 294 294 295 295 295 296 297 297 297 297 296 295 294 294 294 293 292 292 292 292 293 293 293 294 294 295 295 296 297 297 297 297 298 297 297 297 296 295 294 293 292 292 291 292 292 292 292 292 292 292 291 291 291 291 290 290 289 289 289 289 289 289 288 288 288 289 288 289
288 288 288 288 287 287 287 287 287 287 288 288 288 289 289 290 291 291 292 293 293 294 294 295 296 296 297 297 296 295 294 294 293 292 292 291 292 292 292 292 292 293 293 294 295 295 296 296 297 297 297 296 296 295 295 293 293 292 292 291 291 292 292 292 292 292 292 292 291 291 291 291 291 290 290 289 289 289 289 289 288 288 289 289 289
287 287 287 287 287 286 286 286 286 286 286 287 287 287 287 288 288 289 289 290 291 292 292 293 294 294 295 296 296 296 296 294 292 291 291 291 291 291 291 291 291 292 292 292 293 294 294 295 295 296 296 295 295 294 294 292 292 291 291 290 290 291 291 292 292 292 292 292 292 292 292 292 292 291 290 290 289 289 288 288 288 289 289 289 289
286 286 286 286 286 286 286 286 286 286 286 286 286 286 286 286 287 287 287 288 288 289 290 291 291 292 293 294 294 295 296 296 294 292 291 290 290 290 290 291 291 291 291 291 292 292 293 293 294 294 295 295 294 294 293 293 292 291 290 289 289 289 290 290 291 291 292 292 292 292 292 292 292 291 291 290 290 289 288 288 288 289 289 289 289
286 286 286 286 286 286 286 286 286 286 286 286 286 286 286 286 286 286 286 286 287 287 288 288 289 289 290 291 292 293 294 295 295 294 292 291 290 290 290 290 290 290 291 291 291 291 292 292 293 293 293 294 293 293 293 292 292 291 289 288 288 288 288 289 289 290 291 291 292 292 292 292 291 291 291 290 290 289 288 288 288 288 288 288 288
286 286 286 286 286 286 286 286 286 286 286 286 286 286 286 286 286 286 286 286 286 286 286 286 287 287 288 288 289 291 292 292 293 294 294 292 290 289 289 289 289 290 290 290 290 290 291 291 291 292 292 293 293 292 292 292 291 290 289 288 288 288 288 288 288 288 289 290 290 291 291 291 290 290 290 289 289 288 288 288 288 287 287 287 287
286 285 285 286 286 286 286 286 286 286 286 286 286 286 286 285 285 285 285 285 285 285 286 286 286 286 286 286 287 288 290 290 291 292 293 293 291 289 289 289 289 289 289 290 290 290 290 290 290 291 291 291 292 292 292 291 291 290 289 288 288 287 287 287 288 288 288 288 289 289 288 288 288 288 288 288 288 287 287 287 287 286 286 286 286
285 285 285 285 285 285 285 285 285 285 285 285 285 285 285 285 285 285 285 285 285 285 285 285 285 285 286 286 286 286 287 288 289 290 291 293 292 290 289 289 289 289 289 289 289 289 289 289 290 290 290 291 291 291 291 291 290 289 289 288 287 287 287 287 287 287 288 288 288 287 287 287 287 287 286 287 287 286 286 286 286 286 286 285 285
285 285 285 284 284 285 285 285 285 285 285 285 285 285 285 285 285 285 285 285 285 285 285 285 285 285 285 285 285 286 286 287 287 288 289 291 292 291 289 288 288 289 289 288 289 289 289 289 289 289 290 290 290 290 290 290 289 288 288 287 286 286 287 287 286 287 287 287 287 286 286 286 286 286 285 285 285 285 286 286 286 285 285 285 284
285 285 285 284 284 284 284 284 284 284 285 285 285 285 285 285 285 285 285 285 285 285 285 285 285 285 285 285 285 285 286 286 286 286 287 288 290 292 291 289 288 289 289 288 288 288 288 288 288 289 289 289 289 289 289 289 288 287 287 286 285 285 286 286 286 286 286 286 285 285 284 284 285 285 284 284 284 284 285 286 286 285 284 283 283
285 285 284 284 284 284 284 284 284 284 284 284 284 284 284 284 285 285 284 285 285 285 285 285 285 285 285 285 285 285 285 285 285 285 286 286 287 290 291 290 288 288 288 288 288 287 288 288 288 288 288 288 289 288 288 288 287 287 286 285 285 285 285 285 285 285 285 285 285 284 284 284 284 284 284 283 283 284 285 285 285 284 283 283 282
284 284 284 284 284 284 283 283 283 283 283 283 283 283 284 284 284 284 284 284 284 285 285 285 285 286 285 285 284 284 284 285 285 285 285 285 286 287 289 291 290 289 288 288 288 287 287 287 287 287 288 288 288 288 287 287 287 286 286 285 285 286 285 284 284 285 285 285 285 285 284 284 284 284 283 282 283 284 285 285 285 284 283 282 281
283 283 282 282 282 283 283 283 283 283 283 283 283 283 283 283 283 283 284 284 284 284 284 285 285 285 286 285 285 284 284 284 285 285 285 285 285 286 287 289 291 291 288 287 287 287 287 287 287 287 287 287 287 287 287 287 286 286 286 286 286 286 285 284 285 284 284 284 284 284 283 283 284 283 283 282 283 284 285 284 283 283 282 281 280
282 282 282 282 282 282 282 282 282 282 282 282 282 282 283 283 283 283 283 283 284 284 284 284 284 285 285 285 285 285 284 284 284 285 285 285 285 285 286 287 289 291 289 287 287 286 286 287 287 287 287 287 287 287 287 287 286 286 286 286 285 285 284 284 284 283 283 283 283 283 283 283 283 283 282 282 283 283 283 283 282 282 281 280 280
281 281 281 281 281 282 281 281 281 281 281 281 281 282 282 282 282 283 283 283 283 283 284 284 284 284 284 285 285 285 285 284 284 284 284 285 285 285 285 285 287 289 289 288 286 286 286 286 286 286 286 286 286 286 286 286 285 285 285 285 284 283 283 283 282 282 282 282 282 282 283 283 283 283 283 283 283 282 282 281 281 281 280 280 279
279 280 280 281 281 281 281 281 281 280 280 280 280 280 282 282 282 282 282 282 282 283 283 283 283 284 284 284 285 285 285 284 284 284 284 284 284 285 285 285 286 288 289 289 287 286 286 286 286 286 286 286 286 285 285 285 285 284 284 284 283 282 282 282 282 282 282 282 282 282 282 283 283 283 283 283 283 282 281 280 280 280 280 280 279
277 278 278 279 280 280 279 279 279 279 278 278 277 278 280 280 280 281 281 281 281 282 282 283 283 283 283 284 284 284 284 284 284 284 284 284 284 284 285 284 285 286 288 290 289 287 286 286 286 286 286 286 285 284 284 284 284 283 283 283 282 282 282 282 282 281 281 281 282 282 282 283 283 283 283 283 282 280 279 279 279 279 279 279 279
274 275 276 276 277 277 276 276 277 276 276 275 275 276 277 277 278 279 279 279 279 280 280 281 281 282 282 283 284 284 284 284 284 284 284 284 284 284 284 284 284 285 287 289 289 287 286 286 286 285 285 285 285 284 284 283 283 283 283 283 282 282 282 282 281 281 281 281 282 282 283 283 282 282 282 281 280 280 279 279 279 279 279 279 279
271 271 272 272 273 272 272 272 272 273 273 273 272 273 274 273 273 275 276 277 277 277 278 278 279 279 280 282 283 283 283 284 284 284 284 284 284 284 284 284 284 284 286 288 288 286 285 285 285 285 285 285 285 285 284 283 283 283 283 283 282 282 281 281 281 281 281 281 282 282 282 282 282 281 281 280 280 280 280 279 279 279 279 279 278
270 270 270 270 270 269 269 268 269 269 270 270 270 270 271 271 270 271 273 273 273 274 275 275 276 277 278 279 280 281 282 283 283 284 284 284 283 284 284 284 284 284 286 288 288 286 285 285 285 285 285 285 285 284 283 282 282 282 283 282 282 282 281 281 280 280 281 281 281 281 281 281 281 280 280 280 280 280 279 279 279 279 278 278 277
268 268 268 267 267 267 266 266 266 266 267 268 268 268 269 269 269 270 271 272 271 272 272 273 274 276 276 277 277 278 280 282 283 283 283 282 282 283 283 283 283 284 286 287 287 285 285 284 285 285 284 284 284 283 282 281 281 282 282 282 282 281 281 281 280 280 280 280 280 281 281 281 280 279 280 280 279 279 279 279 278 278 277 277 277
264 264 264 263 263 263 263 263 263 263 264 265 265 266 267 268 268 269 270 271 271 271 272 272 274 275 275 276 276 277 278 281 282 281 281 281 282 282 282 282 282 284 286 286 285 284 284 284 284 284 284 283 283 283 282 281 281 282 282 282 281 281 281 281 281 280 279 280 280 280 280 280 279 280 280 280 279 279 278 278 277 277 276 276 276
261 261 261 261 261 262 262 262 262 262 262 263 263 264 265 266 267 267 268 269 270 270 271 272 273 274 274 275 276 276 277 278 279 280 280 281 282 282 282 282 282 283 285 285 283 283 284 284 283 283 283 283 283 282 282 281 281 281 282 281 281 281 281 281 281 280 279 280 279 279 279 279 280 280 280 279 279 278 278 277 277 276 276 276 275
260 260 260 261 261 261 261 261 261 262 262 262 262 263 263 264 265 265 266 267 268 270 271 272 273 274 275 275 276 277 277 278 278 279 280 281 282 282 282 282 282 283 283 283 283 283 283 283 283 283 283 282 282 282 282 281 281 281 281 281 280 280 281 281 281 280 279 279 279 279 279 279 280 280 279 279 278 278 277 277 277 276 276 275 275
260 260 260 260 260 261 261 261 261 262 262 262 262 263 263 263 264 264 265 266 267 268 270 271 272 274 275 276 276 277 278 279 279 280 281 282 282 282 282 282 282 282 283 283 283 283 283 283 283 282 282 282 282 282 282 281 281 281 281 281 280 280 280 281 281 280 279 279 279 279 279 279 279 278 278 278 278 277 277 276 276 275 275 275 275
260 260 260 260 260 260 261 261 261 262 262 262 262 263 263 263 263 264 264 264 265 266 267 268 269 271 272 274 275 276 277 278 279 280 281 282 283 283 283 283 282 282 283 283 283 283 283 283 283 282 282 282 282 282 281 281 281 281 281 281 280 280 280 281 281 281 280 279 279 279 279 278 278 278 278 277 277 277 276 275 275 275 275 275 275
260 260 260 260 260 261 261 261 261 262 262 262 262 263 263 263 263 263 263 264 264 265 265 266 267 268 269 271 272 274 275 277 278 279 279 281 283 283 283 283 283 283 283 283 283 283 283 282 282 282 281 281 281 281 281 281 280 280 280 280 280 280 280 281 281 281 280 279 279 279 278 278 278 278 278 277 277 276 276 275 275 275 275 275 275
260 260 260 260 260 261 261 261 261 261 262 262 262 262 262 263 263 263 263 264 264 265 265 266 267 268 269 270 271 272 273 275 277 278 279 281 282 283 283 283 283 283 282 282 283 283 283 282 282 282 281 280 280 281 281 280 280 280 280 280 280 280 280 280 281 280 280 279 279 278 278 277 277 277 277 276 276 276 275 275 275 275 275 275 274
261 261 261 261 261 261 261 261 261 261 261 262 262 262 262 263 263 264 264 264 265 266 266 267 267 268 269 270 272 273 274 275 277 279 280 281 282 283 283 283 283 283 282 282 282 283 283 282 282 281 281 280 280 280 280 280 280 280 280 280 280 280 280 280 280 280 279 278 278 278 277 276 276 276 276 276 276 275 275 275 275 275 274 274 274
262 262 262 262 262 261 261 261 261 261 261 261 262 262 262 263 263 264 264 265 265 266 267 268 268 269 270 271 272 274 276 276 277 279 280 280 281 282 283 283 283 283 282 282 282 282 282 282 281 280 280 280 280 280 280 279 279 279 280 279 279 279 279 280 280 279 278 278 278 277 276 276 276 276 276 276 275 275 275 275 274 274 274 274 274
262 263 263 263 262 262 262 261 261 261 261 261 262 262 262 263 263 264 264 265 266 266 267 267 268 269 270 271 273 275 276 277 278 279 279 280 281 282 283 283 283 283 282 282 282 282 282 281 280 280 280 280 280 280 279 279 279 280 280 279 279 278 278 279 279 278 277 277 277 276 276 276 276 276 275 275 275 274 274 274 274 274 274 274 273
263 263 264 264 263 263 262 262 262 262 262 262 262 262 263 263 263 264 264 264 265 265 266 266 267 268 269 270 271 274 276 277 278 278 279 279 280 281 282 283 283 283 282 282 281 282 282 281 280 280 280 280 280 280 280 280 280 280 280 279 279 278 278 278 278 278 277 277 277 276 276 276 275 275 275 274 274 274 274 274 274 274 274 273 273
263 263 264 264 264 264 263 263 263 263 263 263 263 263 263 264 264 264 264 264 264 265 265 266 267 268 269 270 271 273 275 277 277 278 278 279 279 280 282 283 283 282 282 281 281 281 281 281 280 280 279 279 280 280 280 280 280 280 280 279 278 278 278 278 277 277 277 276 276 276 275 275 275 274 274 274 274 273 273 273 273 273 273 273 273
264 264 265 265 265 265 264 264 265 265 265 265 265 265 265 265 265 265 264 264 264 265 265 266 267 268 270 271 272 273 275 276 277 278 278 278 279 280 281 282 282 282 281 281 281 281 281 281 280 280 279 279 280 281 281 280 280 280 280 279 278 277 277 277 277 276 276 276 275 275 275 274 274 274 273 273 273 273 273 273 273 273 272 272 272
264 265 265 265 265 265 265 265 265 266 266 266 266 266 266 266 266 266 265 265 265 266 266 267 269 270 271 272 273 274 275 276 277 278 278 278 279 279 281 281 281 281 281 281 281 281 281 281 281 280 280 280 281 281 281 281 280 280 279 278 277 277 276 276 276 276 275 275 275 274 274 274 273 273 273 273 273 273 273 272 272 272 272 272 272
264 264 265 265 265 266 265 265 265 266 267 267 268 268 268 268 267 267 267 267 267 267 268 268 270 271 272 273 274 275 275 275 276 277 278 279 279 279 280 281 281 281 281 280 280 280 280 280 280 280 280 280 281 281 280 280 280 279 279 278 277 276 276 276 276 275 275 275 274 274 274 273 273 273 273 273 273 272 272 272 272 272 272 271 271
265 265 265 266 266 267 266 266 266 266 267 268 268 269 269 269 269 269 269 269 269 269 270 270 271 272 273 274 274 275 275 275 276 277 278 279 279 279 279 280 280 280 280 280 280 280 280 280 280 280 280 280 280 280 279 278 278 277 277 277 276 276 275 275 275 275 275 274 274 274 273 273 273 273 273 272 272 272 272 271 271 271 271 271 271
266 266 266 266 267 267 267 267 267 268 268 268 269 269 270 270 270 270 270 270 270 270 271 271 272 273 274 274 274 275 275 276 276 277 278 278 279 279 279 279 279 279 279 279 279 280 280 280 280 280 279 279 279 278 278 276 275 275 275 275 275 275 275 274 274 274 274 274 273 273 273 273 273 273 272 272 272 271 271 271 271 271 270 270 270
267 266 266 267 267 268 268 268 268 269 269 269 269 270 270 270 270 270 270 271 271 272 272 272 273 274 274 274 275 275 275 276 276 277 277 278 278 278 278 279 279 279 279 279 279 279 279 278 278 279 279 279 278 277 276 275 274 273 273 273 273 274 274 274 273 273 273 273 273 273 273 273 272 272 272 272 271 271 271 270 270 270 270 270 270
267 267 267 268 268 268 268 269 269 269 269 269 269 270 270 271 271 271 271 272 272 272 273 273 274 274 274 275 275 275 275 276 276 277 277 277 278 278 278 278 278 278 278 278 278 277 277 277 277 278 278 278 277 276 275 274 273 273 273 273 273 273 273 273 273 273 273 273 273 272 272 272 272 272 271 271 271 270 270 270 270 269 269 269 269
268 268 268 268 268 268 268 269 269 269 269 270 270 270 270 270 271 271 272 272 272 272 273 273 273 273 274 274 275 275 275 276 276 276 277 277 277 277 277 277 277 277 277 277 276 276 276 276 277 277 276 276 275 274 274 273 273 273 273 273 273 273 273 273 273 273 273 272 272 272 272 272 271 271 271 271 270 270 270 269 269 269 269 269 269
268 268 269 269 269 269 269 269 269 269 269 270 270 270 270 270 271 271 271 271 272 272 272 272 273 273 273 274 274 275 275 275 276 276 276 276 276 276 276 276 276 276 276 276 275 275 275 275 275 274 274 274 273 273 273 273 273 272 272 272 272 272 272 272 272 272 272 272 272 272 272 271 271 271 271 270 270 269 269 269 268 268 268 268 268
269 269 269 269 269 269 270 270 270 270 270 270 270 270 270 270 271 271 271 271 272 272 272 272 272 272 273 273 274 274 274 275 275 275 275 275 275 275 275 275 275 275 275 275 274 273 273 273 273 273 273 273 272 272 272 272 272 272 272 272 272 272 272 272 272 272 272 272 271 271 271 271 271 271 270 270 269 269 268 268 268 268 268 267 267
Wind_Speed
21 22 23 23 22 22 22 22 22 22 21 21 20 19 18 17 17 18 20 21 21 22 24 26 27 28 29 30 31 32 33 35 36 37 40 42 44 45 46 47 49 51 54 55 56 56 56 56 57 56 56 55 55 54 52 51 49 47 45 43 42 41 38 37 36 34 33 30 28 27 26 26 27 27 28 27 26 25 24 22 20 18 16 15 14
19 19 21 23 23 22 22 21 21 22 22 22 22 22 21 20 18 18 19 20 20 21 22 24 25 26 28 29 30 31 32 34 36 37 40 42 43 45 46 47 48 49 51 53 54 56 56 57 57 57 57 56 56 56 54 53 52 50 49 46 45 44 42 40 38 38 36 33 31 30 29 28 28 28 28 27 26 25 23 22 20 18 17 16 15
20 19 18 19 21 22 23 22 22 21 22 22 23 23 23 23 22 20 20 20 20 21 21 22 23 24 26 27 28 29 31 33 35 37 39 42 44 45 45 46 47 48 49 50 51 52 55 57 58 58 58 57 58 58 57 56 55 53 51 49 48 47 45 42 41 40 38 36 34 33 32 30 30 28 28 27 26 24 23 22 20 18 17 16 16
22 21 20 19 19 20 21 22 22 22 21 22 22 23 24 24 24 24 23 22 21 21 21 21 22 23 24 25 26 27 29 31 33 35 37 40 43 45 46 46 47 48 49 50 50 50 52 54 57 58 58 58 59 59 59 58 57 55 53 51 50 49 47 45 43 42 40 38 36 35 33 32 30 29 28 27 26 24 23 22 20 18 17 16 17
24 23 23 22 21 20 19 19 21 21 21 21 22 22 23 24 25 25 25 24 23 22 22 22 23 23 24 24 24 25 27 29 31 33 35 37 40 42 45 47 48 49 50 50 50 50 51 53 55 56 57 58 60 61 61 60 59 58 56 54 53 51 49 47 45 43 42 41 38 36 34 33 32 31 29 27 26 25 24 22 20 19 18 17 17
26 25 25 23 22 22 21 20 20 21 21 22 22 22 22 23 24 24 25 25 25 24 24 23 24 24 24 24 23 24 25 27 29 32 34 36 38 40 42 45 48 49 51 51 51 52 52 53 53 54 56 58 60 61 62 61 61 60 59 57 55 53 51 49 47 45 44 44 41 38 36 35 34 32 30 28 27 26 25 23 22 21 19 19 18
28 28 28 27 25 24 23 23 22 21 21 21 21 21 21 21 22 24 25 25 26 26 25 25 25 25 25 25 25 25 25 26 29 31 33 35 37 39 41 44 46 47 49 50 51 52 52 52 53 54 56 57 59 61 61 61 61 62 61 60 58 56 54 52 50 48 47 46 45 42 39 36 35 34 31 29 28 28 27 26 25 23 22 20 20
26 27 28 28 28 27 25 24 23 23 22 21 21 21 21 21 21 22 23 25 26 26 26 26 26 26 26 26 26 26 26 27 29 30 32 34 35 38 40 42 45 46 47 48 50 51 51 52 53 54 56 57 58 59 60 61 62 63 63 62 60 58 56 55 53 51 50 49 47 44 41 39 37 36 34 32 31 31 30 28 26 25 23 22 21
24 26 27 28 28 28 27 26 25 24 24 23 23 23 22 22 22 22 22 23 24 25 26 26 26 27 27 27 27 27 28 29 29 29 31 32 33 35 37 40 44 46 48 48 49 50 51 52 53 54 55 56 57 58 59 61 62 63 64 64 63 61 59 58 56 54 53 52 50 47 45 43 41 39 38 36 33 32 31 29 28 27 25 23 22
24 26 27 28 29 29 28 27 26 25 25 25 25 24 24 24 24 23 23 23 23 24 24 25 25 26 27 27 28 28 29 29 29 29 30 31 31 33 35 38 41 45 48 49 50 50 50 51 52 53 54 56 57 57 59 60 62 63 64 64 64 63 62 60 59 58 56 55 53 50 48 46 43 40 39 36 34 33 33 31 29 28 27 25 23
22 24 25 27 29 30 31 30 29 28 26 26 25 25 25 25 25 25 25 25 25 25 25 25 25 25 25 26 27 29 30 30 29 29 29 29 30 32 34 36 39 43 46 49 50 50 50 50 51 52 54 56 57 57 58 60 62 62 63 63 64 64 63 62 61 60 58 57 54 52 50 47 44 41 39 37 35 34 33 32 31 30 29 26 24
21 22 23 25 26 28 30 32 32 32 31 29 28 27 26 26 25 25 26 26 27 27 28 28 28 27 27 26 26 27 28 29 29 29 29 29 29 30 33 35 38 41 44 47 50 51 50 50 51 52 53 54 56 57 58 59 61 61 62 63 64 64 63 62 61 60 59 58 56 53 51 47 44 42 40 38 36 35 34 33 32 31 29 27 25
22 23 24 26 26 27 28 29 31 33 33 33 33 32 31 30 28 27 27 27 27 28 29 30 30 30 30 30 29 29 28 28 28 29 29 29 29 29 32 35 38 41 43 45 48 50 50 51 51 51 52 52 55 57 58 59 60 60 61 62 63 63 63 62 61 60 59 57 55 54 51 47 44 43 40 38 36 36 35 34 33 32 30 28 26
24 25 26 27 29 29 30 30 30 31 32 33 34 34 34 33 32 31 30 29 29 28 29 30 31 32 32 33 33 33 32 30 29 29 28 28 29 29 31 33 37 40 42 44 45 47 49 51 51 50 50 50 53 56 58 58 58 59 60 62 63 64 64 63 62 61 59 56 53 50 47 45 43 42 39 37 37 36 35 34 33 32 31 29 27
26 27 27 28 30 31 32 33 33 32 32 33 33 34 35 35 35 34 34 33 33 32 31 31 31 32 33 34 35 36 35 33 32 31 29 28 28 28 30 33 36 39 42 44 45 46 47 49 51 50 49 49 51 54 56 56 56 57 59 61 63 64 64 65 64 62 60 57 52 47 42 40 39 40 39 38 37 36 34 33 32 32 31 30 29
31 30 30 30 31 32 33 34 34 35 35 34 34 35 35 36 36 36 36 36 36 36 35 35 34 34 34 34 36 37 37 35 34 34 33 30 28 28 30 33 36 39 42 43 45 46 46 47 48 48 48 49 49 51 54 53 53 55 57 60 62 64 65 65 64 62 59 55 51 48 45 41 40 41 41 39 38 36 35 34 33 33 33 32 30
36 36 35 35 35 35 35 35 35 36 37 37 36 36 37 37 37 38 38 39 39 39 39 38 38 37 37 37 37 38 38 37 36 36 35 34 31 29 31 33 36 39 41 42 44 45 45 46 46 46 47 48 49 49 51 52 52 53 55 57 59 62 64 63 62 61 58 54 51 48 46 44 43 42 40 40 39 37 36 35 35 35 35 32 29
41 41 41 40 39 39 38 37 37 38 38 38 38 38 39 39 39 40 40 41 42 42 42 42 42 41 40 39 39 39 40 39 37 37 37 36 34 33 32 33 36 39 40 41 42 44 44 44 45 47 48 47 48 49 49 50 51 52 54 55 57 59 62 61 61 60 57 53 49 46 45 44 43 41 41 40 38 37 36 35 35 36 34 31 27
44 44 45 45 44 43 42 41 41 40 40 40 40 40 41 41 41 42 42 43 45 45 45 46 46 45 44 43 42 41 42 41 39 38 38 37 36 35 34 34 37 40 41 41 42 43 44 44 44 46 47 46 46 47 48 49 50 51 52 54 57 59 61 60 59 59 57 54 50 47 46 44 42 42 40 38 36 36 36 36 37 36 33 29 26
46 47 47 47 47 47 46 46 45 45 44 44 43 43 43 44 44 44 44 45 46 46 47 48 49 49 48 46 45 44 44 43 40 39 39 39 38 37 36 36 38 39 40 40 42 42 43 45 45 45 47 46 45 45 47 48 49 50 51 54 57 58 58 57 57 57 57 55 53 50 48 46 45 44 41 38 37 38 39 39 38 34 30 28 25
49 49 49 49 49 49 49 49 49 49 49 49 48 48 47 47 47 47 47 47 47 48 48 49 50 52 51 50 49 47 46 45 43 40 40 40 39 38 37 38 39 39 37 38 41 43 43 44 45 44 45 46 45 45 45 46 47 49 50 52 54 53 53 55 55 54 55 54 53 51 50 49 48 46 43 40 40 41 41 38 33 30 28 26 23
51 51 52 52 53 53 52 52 52 52 52 52 52 52 51 51 51 50 50 50 50 50 50 50 51 52 53 54 53 51 49 47 46 43 41 40 40 40 39 39 39 38 36 35 39 44 45 43 44 43 42 44 45 44 44 43 45 48 49 49 49 49 50 53 52 51 53 54 53 52 52 51 49 46 44 41 40 40 38 34 30 28 27 25 23
51 53 55 55 56 56 56 56 55 56 55 55 55 56 55 54 54 54 53 53 53 53 53 53 53 54 54 55 56 56 53 50 48 46 44 42 41 41 41 40 38 37 37 36 39 45 46 43 41 40 41 42 44 44 43 42 43 46 47 47 46 47 50 51 50 51 53 54 54 54 52 51 48 46 43 41 39 38 35 31 30 28 26 24 24
52 54 56 57 58 59 59 59 59 59 58 58 58 59 59 58 58 57 57 56 56 56 56 55 55 56 56 56 57 58 58 55 52 49 46 44 43 42 42 42 38 36 37 38 41 44 46 45 41 37 37 39 41 42 41 41 42 44 45 45 45 47 50 51 52 53 54 55 56 55 53 50 47 44 42 40 38 35 32 30 30 28 26 25 25
53 56 57 59 60 61 61 62 62 61 61 60 60 62 62 62 62 61 60 60 60 60 59 58 58 58 58 58 58 58 59 59 57 53 49 46 45 45 44 43 40 36 35 38 41 43 46 45 42 37 34 35 37 39 39 40 40 40 40 42 44 47 50 53 54 54 55 56 56 54 52 49 45 42 40 38 36 33 31 31 30 27 27 26 25
53 56 58 60 62 62 62 63 64 64 63 63 63 65 65 64 64 64 63 62 62 62 61 60 60 60 60 60 60 59 59 60 61 58 53 49 47 46 45 44 42 37 35 36 38 42 45 45 42 38 35 33 33 35 37 39 38 36 38 41 44 47 51 53 54 56 57 57 55 53 50 47 43 41 39 37 34 33 32 31 30 28 28 27 26
55 58 60 62 63 63 63 64 66 66 67 66 65 66 66 64 64 65 66 64 63 63 63 62 60 60 61 62 62 61 59 59 61 62 59 53 50 48 46 43 41 37 35 35 36 39 44 45 42 39 36 33 31 31 34 36 36 36 39 43 44 47 51 52 53 55 55 54 52 51 48 45 43 41 39 36 34 34 33 31 30 30 29 27 26
60 62 64 64 65 65 65 66 66 67 68 67 65 66 67 65 63 65 65 63 61 61 61 60 59 59 59 60 61 61 60 59 59 61 62 57 51 47 45 43 40 37 35 33 33 36 42 43 42 41 39 36 33 31 32 35 35 36 41 45 45 47 49 49 48 50 52 51 50 48 46 44 43 40 37 35 35 35 34 32 30 29 28 26 25
57 60 61 61 62 61 60 60 61 61 63 64 64 64 65 63 61 63 64 62 60 59 58 58 59 59 58 57 57 57 60 60 57 57 58 55 49 46 45 43 39 36 32 29 29 34 41 43 43 42 41 40 37 35 34 35 36 37 42 46 47 48 48 47 46 48 49 50 49 47 45 43 41 38 37 36 36 35 34 31 30 28 26 25 23
50 51 51 51 51 49 47 48 51 52 54 56 58 60 61 59 57 58 60 60 57 54 53 54 56 55 53 55 55 54 57 59 57 54 50 45 41 42 44 43 40 35 30 25 26 34 41 44 44 44 44 42 41 39 38 38 38 38 42 46 48 49 48 46 44 45 48 48 47 46 44 42 40 38 38 38 37 35 33 30 28 25 24 23 22
45 45 44 43 43 41 40 42 44 45 46 48 49 52 55 56 54 52 52 53 52 49 47 47 48 47 46 50 51 50 51 52 53 51 47 39 34 35 37 37 36 33 29 25 27 35 42 45 46 47 45 44 44 42 39 39 40 41 42 45 48 49 47 44 43 45 48 48 47 44 43 41 40 40 40 39 37 34 31 28 25 23 22 21 21
43 43 43 43 42 41 41 41 41 40 40 39 39 40 42 45 48 46 42 40 39 37 36 36 38 39 40 43 46 47 48 47 46 45 43 38 35 33 31 30 30 29 28 27 30 38 43 46 48 49 47 46 44 41 39 40 42 45 45 46 48 48 46 44 44 46 47 47 45 43 41 41 41 40 39 37 35 32 28 26 24 22 21 21 20
41 42 42 42 41 40 40 39 39 38 37 36 35 35 34 35 39 41 37 34 34 35 36 37 38 38 38 39 40 42 43 44 43 41 39 38 36 34 32 31 29 27 27 29 35 41 45 47 48 50 50 49 45 41 40 42 45 47 48 49 48 47 46 45 44 45 45 43 42 42 42 41 40 38 36 34 31 29 27 24 22 21 20 20 20
39 39 39 39 39 39 38 38 37 37 36 35 35 35 35 36 37 39 39 39 40 41 40 38 38 39 40 42 42 42 41 41 41 40 38 37 36 35 33 32 30 28 29 33 38 43 46 48 48 49 50 48 45 41 41 43 45 47 48 49 48 48 48 46 44 43 43 41 41 41 41 39 38 36 34 32 30 27 24 22 20 20 20 20 19
37 37 36 36 36 36 35 35 35 35 35 35 35 35 36 37 38 39 39 39 39 39 37 36 35 35 34 37 40 41 41 38 38 39 39 37 36 35 33 32 31 31 32 35 40 45 48 49 48 48 47 45 43 43 43 44 45 47 49 50 50 50 49 46 43 42 41 41 41 39 37 36 36 34 33 31 28 26 23 21 20 19 19 19 19
36 36 36 35 35 35 34 34 35 35 34 35 35 35 36 36 37 37 37 36 36 36 35 35 35 33 30 28 29 30 34 35 34 34 35 35 35 34 34 35 35 35 35 37 40 43 46 48 48 46 44 43 43 44 45 45 45 47 49 50 51 51 50 47 44 42 40 40 40 38 35 35 34 32 30 28 26 24 22 20 19 19 18 18 18
35 35 36 35 35 35 35 35 35 36 35 34 34 34 34 34 34 34 35 35 35 35 34 32 32 32 30 28 25 24 25 29 30 30 30 31 33 34 35 38 38 36 36 37 37 38 40 43 45 44 43 42 43 44 45 45 44 45 47 48 49 49 49 47 44 42 41 40 39 36 34 33 32 30 28 26 24 22 20 19 19 18 17 17 16
33 33 34 34 34 35 36 36 36 36 34 33 32 32 32 33 33 33 33 33 33 32 31 29 28 29 30 29 26 22 21 22 24 26 26 27 30 32 35 38 39 37 36 36 35 35 36 38 40 41 42 42 43 43 44 44 43 44 45 46 47 47 48 47 44 42 41 40 37 34 33 32 29 27 26 24 22 20 19 19 18 17 16 16 15
33 33 32 32 33 34 35 36 37 36 34 33 31 30 30 30 30 30 31 31 31 30 30 29 30 31 32 31 27 23 21 21 21 21 21 23 24 26 30 37 39 37 35 34 33 33 33 34 36 39 41 42 42 43 43 42 42 42 43 44 46 47 48 47 44 42 40 37 34 32 31 30 27 25 23 21 20 19 18 17 17 16 15 14 14
32 33 32 31 31 33 34 35 37 37 36 35 34 32 31 31 31 31 31 32 33 34 33 33 33 34 35 34 29 24 21 21 21 20 20 21 20 20 25 34 38 36 33 32 32 31 31 33 36 38 40 42 42 41 40 40 40 40 40 41 44 46 47 45 43 40 37 33 32 31 30 28 26 23 22 20 19 18 17 16 15 15 14 14 14
31 33 32 31 31 32 33 34 35 35 35 35 35 35 34 34 34 34 33 32 32 31 31 30 30 29 29 30 29 26 24 24 23 22 21 21 19 19 23 31 37 35 31 30 30 29 29 33 37 40 41 40 38 36 36 38 38 38 38 39 41 43 44 43 40 37 34 32 31 31 29 26 24 22 20 19 18 17 16 15 15 14 14 13 13
29 31 31 31 31 31 32 32 32 32 33 33 33 33 33 33 33 33 33 31 30 28 28 28 26 24 23 23 24 24 25 24 23 22 22 21 19 19 23 30 34 33 29 28 28 28 29 32 37 38 38 36 33 32 33 34 35 36 37 37 38 40 41 40 36 34 32 32 31 29 26 24 22 20 19 18 17 16 15 15 14 13 13 13 13
29 30 31 32 32 32 31 31 31 31 31 31 31 31 31 31 31 31 30 29 28 27 27 26 24 22 21 21 20 21 21 21 20 20 21 20 19 20 22 27 29 29 27 26 25 24 25 28 30 32 33 33 30 27 25 27 30 33 33 33 34 36 38 36 34 33 32 31 29 27 24 22 20 19 19 18 17 16 15 14 13 13 13 13 13
28 28 29 29 29 30 30 30 30 31 31 30 30 29 28 28 28 27 27 27 27 25 24 23 23 22 21 21 20 19 19 18 18 17 18 18 19 19 21 23 25 26 25 23 20 19 20 22 25 28 30 31 28 22 20 22 26 27 27 28 31 34 35 34 33 33 31 29 27 25 23 21 20 19 18 17 16 15 14 13 13 13 12 13 13
25 25 26 27 27 27 27 27 26 26 27 27 28 28 26 24 23 23 23 24 24 23 22 22 21 21 21 21 20 19 18 16 14 13 13 15 16 17 18 20 21 21 21 19 16 15 16 18 21 25 28 28 25 21 20 21 21 21 22 25 29 32 32 31 30 29 27 25 24 22 21 20 18 17 17 16 15 14 14 13 13 13 12 13 14
23 24 25 26 26 26 26 25 24 23 23 22 23 24 23 22 21 21 21 21 22 22 22 22 20 19 18 17 16 15 15 13 11 9 10 12 14 14 15 16 16 16 15 14 14 15 16 17 19 23 26 25 23 20 19 19 19 20 22 24 26 27 27 27 26 24 23 22 21 19 19 18 17 16 16 15 14 14 13 12 12 12 12 13 14
22 23 23 24 25 26 25 25 25 24 22 20 20 20 20 19 18 17 17 17 18 18 18 17 16 14 13 12 12 12 11 9 7 7 9 11 11 11 11 12 11 11 12 13 14 15 16 18 20 23 23 22 21 21 22 24 25 25 25 25 25 25 25 25 23 22 21 20 18 18 17 16 15 15 15 14 14 13 13 12 12 12 12 14 15
21 22 22 23 24 25 26 26 26 25 24 22 20 19 18 17 16 15 14 13 13 12 12 12 11 10 9 8 8 7 6 5 5 6 7 6 6 6 7 8 8 10 12 14 15 16 17 19 21 21 20 20 22 24 26 28 28 28 28 27 25 24 23 22 21 20 19 18 17 16 16 15 14 14 13 13 12 12 12 11 12 12 13 15 15
21 22 22 24 24 25 26 26 26 26 25 24 23 21 19 18 18 17 16 15 13 12 11 10 9 7 6 5 4 3 1 1 3 4 3 3 3 4 5 7 10 12 15 16 18 19 20 21 21 20 21 23 25 26 27 28 27 26 25 23 22 21 20 19 18 17 16 16 15 15 14 14 13 12 12 11 12 12 12 11 12 13 14 15 15
22 22 23 24 24 25 26 26 26 26 26 25 25 24 22 20 19 18 17 16 15 13 11 10 8 7 5 4 3 3 4 4 4 5 6 7 8 10 11 14 17 20 22 23 24 24 23 24 24 24 25 26 26 26 25 24 23 22 20 20 19 18 17 17 16 15 15 14 14 13 13 12 11 11 11 11 11 11 11 12 13 14 14 14 15
23 23 23 24 24 25 26 26 27 27 27 27 26 25 24 23 21 19 18 17 16 14 13 11 10 8 7 7 7 7 8 9 10 11 13 15 16 18 20 22 23 25 26 26 27 27 27 27 27 27 26 26 25 24 23 21 20 19 18 17 17 16 15 15 14 14 13 13 12 11 11 10 9 10 10 10 11 11 12 13 14 14 14 15 17
Wind_Direction
2 2 4 8 8 8 7 5 3 2 360 356 350 341 328 313 300 289 283 280 278 276 277 277 277 278 277 276 274 273 271 269 267 265 262 260 258 256 255 254 253 252 251 249 247 245 244 244 243 243 242 242 241 241 239 238 238 238 237 237 238 238 238 238 238 241 246 246 245 244 237 232 231 230 230 231 233 237 239 240 241 242 245 250 255
8 3 0 0 2 5 4 2 359 357 357 357 355 351 345 335 320 302 290 282 277 273 272 272 272 273 272 272 272 272 271 270 268 266 264 263 261 259 257 255 254 253 252 251 250 247 245 245 244 244 243 242 242 242 241 240 238 237 237 236 236 237 237 237 238 239 242 244 245 244 240 235 233 231 230 231 233 234 235 237 238 239 242 248 253
8 6 2 357 355 355 355 354 353 350 350 351 352 350 348 345 339 327 314 301 289 280 274 271 270 269 268 268 268 268 269 269 268 267 265 264 262 261 260 259 257 255 253 253 252 250 248 246 245 244 244 243 243 243 242 241 239 239 238 237 237 237 236 236 236 237 240 242 242 243 242 239 236 233 232 233 233 233 233 235 236 237 240 245 251
1 360 359 358 355 351 348 346 345 345 345 346 348 347 345 344 343 340 333 323 310 298 288 279 273 269 267 266 266 267 267 267 267 267 266 266 265 263 262 261 259 258 256 255 253 252 250 248 247 246 245 244 244 243 242 241 240 239 239 238 237 237 237 236 236 236 238 240 240 241 242 241 239 236 234 233 234 235 235 237 238 238 240 243 247
355 354 353 353 353 352 349 345 342 343 344 344 343 342 342 341 341 341 340 336 329 318 305 295 286 280 275 271 269 268 268 268 267 266 266 266 265 265 264 263 262 260 259 258 256 254 252 251 249 248 246 245 244 244 243 241 240 240 239 239 238 237 236 236 235 234 236 238 238 237 238 238 238 238 236 234 236 238 239 240 241 240 241 243 247
348 349 350 349 349 349 348 348 345 343 342 342 341 339 337 336 336 337 338 339 338 332 323 312 302 295 290 286 280 275 272 270 269 268 267 266 266 265 264 263 263 263 262 261 259 257 255 254 253 251 248 246 246 245 244 242 241 240 240 239 238 236 236 235 234 233 234 236 237 236 236 236 236 238 237 234 235 239 240 240 240 238 238 241 247
341 343 346 347 347 345 345 346 346 344 342 339 337 334 332 330 331 331 332 333 334 335 333 327 318 309 301 296 291 287 282 277 273 271 269 268 267 266 264 263 263 263 263 263 262 260 259 257 256 253 251 249 247 247 245 244 243 242 241 240 238 236 235 234 233 232 231 233 234 234 235 235 235 236 236 234 233 235 237 238 238 238 237 239 245
334 336 339 342 343 344 344 343 342 342 341 338 334 330 328 326 326 326 326 327 328 330 331 331 329 323 315 307 299 294 289 284 280 277 274 271 269 267 265 264 263 262 262 263 262 261 260 259 257 256 254 252 251 249 248 246 245 243 242 240 239 237 236 234 233 231 230 231 232 233 233 233 232 232 232 231 231 234 236 237 238 240 241 241 245
333 333 333 335 337 338 340 340 340 338 337 336 334 331 328 326 324 321 320 320 322 323 324 325 327 327 325 320 312 302 294 288 285 282 279 277 274 272 269 266 265 263 263 262 261 260 259 259 258 258 257 255 254 252 250 249 247 245 244 242 239 237 236 235 234 232 230 230 230 232 232 231 231 231 232 232 233 236 238 237 236 240 242 242 245
331 331 332 333 334 334 335 336 337 337 335 334 333 332 331 328 326 323 320 317 317 317 318 319 321 323 324 324 322 315 306 297 291 286 282 280 278 276 274 270 268 266 265 263 262 260 259 259 259 259 259 258 256 253 251 249 248 247 246 245 243 240 238 236 235 234 232 231 231 232 232 232 232 233 235 236 236 236 237 236 235 237 240 240 242
325 325 326 328 329 330 331 332 333 334 334 333 331 331 330 329 328 326 324 321 318 316 316 316 316 317 318 319 320 319 316 311 302 292 286 281 278 275 274 272 270 269 267 265 264 262 261 260 260 260 260 259 257 254 251 249 247 246 246 245 245 244 242 240 238 236 235 234 234 234 234 235 235 234 235 237 237 237 237 237 236 237 240 240 241
320 320 319 320 320 322 323 324 326 328 329 330 329 328 328 327 327 326 324 323 322 319 319 317 316 316 314 313 313 314 315 316 312 302 292 284 279 275 272 271 269 268 267 266 264 263 262 262 261 260 260 260 258 256 253 251 249 247 245 244 244 244 244 244 243 241 240 238 237 236 236 236 237 237 237 237 239 239 238 238 238 238 240 241 241
315 315 314 315 314 315 316 316 318 320 322 323 323 324 324 324 324 325 324 323 322 321 320 319 318 317 315 312 311 309 309 313 315 311 300 290 282 276 273 270 268 267 266 265 264 264 263 262 261 260 260 260 259 257 254 252 250 248 245 244 243 242 241 242 243 243 244 244 243 242 240 239 238 239 239 240 240 239 239 239 240 239 239 240 239
308 308 308 308 309 310 311 312 313 314 315 316 317 318 319 320 321 322 322 321 321 320 319 318 317 317 316 314 312 309 307 310 313 312 307 297 286 278 273 270 268 266 265 264 264 263 261 261 261 261 260 260 259 257 255 253 251 248 245 243 242 241 240 239 238 239 240 242 243 245 246 243 241 241 242 241 240 240 240 240 240 240 240 240 238
301 301 301 301 302 305 307 308 309 310 310 311 312 312 313 314 316 318 318 319 319 318 318 317 315 314 314 313 312 309 307 308 309 310 309 303 291 279 273 270 267 266 265 264 263 262 260 259 260 261 260 259 258 258 257 256 253 250 247 244 243 241 239 238 238 237 237 238 239 241 242 241 241 241 242 241 240 239 239 238 239 240 240 239 238
301 301 300 299 299 300 302 303 304 305 305 306 306 307 308 309 310 312 313 313 314 315 315 315 313 312 311 311 310 308 306 307 307 307 307 306 296 282 273 270 268 265 264 263 263 262 260 259 259 260 260 259 258 257 258 258 254 250 247 245 243 242 241 239 238 237 237 237 236 235 235 233 233 235 237 238 237 235 234 234 235 237 238 238 237
305 305 304 302 300 299 299 299 299 299 300 301 301 302 302 303 305 307 308 308 309 310 311 311 311 310 310 308 307 306 305 305 306 304 304 305 301 289 277 271 269 266 264 264 263 263 261 260 260 260 259 258 257 256 256 256 253 249 247 244 242 241 241 239 237 236 236 234 233 233 232 232 232 232 234 235 234 233 233 234 234 236 238 237 236
307 307 305 304 302 300 298 297 295 295 294 295 296 296 297 298 299 301 303 304 304 306 306 307 307 307 308 307 306 304 302 302 304 303 301 302 301 295 284 274 270 269 266 264 263 263 262 261 260 259 258 258 257 255 254 254 251 247 244 241 239 241 241 238 235 234 232 230 228 228 229 231 232 232 233 233 233 234 234 235 236 237 237 236 236
305 305 304 303 301 299 298 296 294 293 292 291 291 291 292 293 294 295 297 298 299 301 302 303 303 304 305 306 305 303 300 299 300 301 301 300 298 296 291 279 271 269 267 265 263 263 263 262 259 258 258 258 257 255 253 252 249 246 242 238 238 240 241 238 235 233 230 227 225 224 226 228 230 232 233 232 232 234 234 235 236 235 234 235 236
304 303 302 300 299 297 297 296 294 293 292 291 289 288 288 289 289 290 291 292 294 295 297 298 299 300 301 303 303 302 300 298 297 297 298 298 296 294 291 285 278 272 268 267 264 261 261 261 260 258 258 257 256 254 253 251 249 247 243 240 241 242 241 239 237 235 232 229 227 225 225 226 227 229 228 225 228 233 234 234 234 233 232 233 235
302 301 299 298 296 295 295 294 294 293 292 291 290 288 287 286 286 287 287 288 289 290 291 293 295 296 297 299 300 300 299 298 296 294 294 294 295 293 288 286 285 279 270 267 265 261 259 259 260 259 258 257 255 253 251 250 250 248 245 244 246 245 242 241 239 235 231 229 227 224 223 223 223 225 224 222 225 232 234 233 232 232 233 234 235
299 298 297 296 295 294 294 293 293 292 291 290 289 288 287 286 285 285 285 285 286 286 287 289 290 292 294 296 297 298 298 297 295 294 292 291 292 292 288 286 287 281 271 264 263 261 259 259 260 260 259 258 256 254 252 250 247 247 247 246 245 243 241 240 237 232 227 224 223 222 221 221 222 222 222 222 224 229 232 231 230 231 234 234 235
296 295 294 293 293 293 292 292 291 290 289 288 287 286 285 285 284 284 284 285 285 285 285 286 287 289 290 292 294 295 295 295 293 293 292 290 289 290 288 285 283 278 270 264 262 261 261 260 259 260 259 258 257 254 252 248 244 244 245 244 240 238 238 235 232 229 225 222 221 220 220 221 221 222 221 221 224 227 228 228 229 230 232 233 235
294 292 291 290 290 290 289 289 288 287 287 287 286 285 285 284 284 284 283 284 284 284 283 284 285 286 287 288 291 292 293 293 291 290 291 289 287 287 286 284 281 275 270 267 263 261 261 260 259 257 257 256 256 254 252 249 246 242 241 239 236 233 232 231 228 226 224 221 220 220 220 221 222 222 222 223 225 225 223 224 227 228 231 233 236
292 290 289 288 287 287 286 285 285 285 285 285 285 285 284 284 284 283 283 284 283 283 283 283 283 284 285 286 287 288 289 290 290 289 289 288 285 284 284 284 281 275 270 269 265 259 258 259 259 257 256 255 254 252 249 247 245 239 233 232 230 227 228 228 226 223 222 221 220 220 221 223 223 222 223 224 223 220 219 221 224 227 231 234 237
290 288 287 286 285 285 285 284 283 284 283 284 285 284 284 284 284 283 283 283 283 282 282 282 282 282 283 283 284 285 286 287 287 287 286 285 284 282 282 284 283 278 271 267 263 257 255 257 256 255 254 252 250 248 245 243 240 233 227 226 226 225 226 226 223 221 220 220 221 222 224 224 221 220 221 220 218 217 219 221 224 227 231 234 237
289 288 287 286 285 285 285 285 285 285 285 285 286 285 285 285 285 284 283 283 282 282 282 282 281 281 281 282 282 283 282 283 283 284 283 282 282 281 281 282 282 277 269 263 256 251 251 254 254 253 252 251 249 249 247 244 239 231 224 221 221 222 223 223 222 221 221 222 223 224 223 221 219 218 217 215 214 216 218 219 222 226 229 232 235
290 289 288 287 286 286 287 287 287 287 287 287 287 286 285 285 285 284 282 282 282 281 281 281 280 279 279 280 281 281 279 278 278 280 281 281 280 280 280 279 277 272 268 265 257 248 246 249 250 248 247 245 243 241 238 235 231 227 221 216 215 218 220 220 221 222 223 222 222 221 219 218 216 214 212 211 212 215 215 216 220 224 227 231 236
294 291 291 290 290 290 290 290 290 290 290 288 287 287 286 286 286 284 283 282 282 282 281 280 279 278 278 277 277 276 276 275 275 275 278 280 279 276 274 274 274 269 265 265 258 246 241 241 241 240 238 235 232 229 226 222 222 223 219 213 212 215 217 217 219 219 219 219 218 218 217 215 211 209 208 209 211 212 214 216 218 222 227 232 236
299 296 295 295 294 294 293 292 292 293 293 292 291 290 288 288 288 287 285 285 284 284 283 281 280 279 278 276 275 273 272 273 273 272 273 275 276 274 271 270 269 263 259 258 251 241 237 235 233 233 232 229 226 223 220 216 215 216 214 211 211 214 216 217 218 218 216 216 217 217 216 212 208 207 208 208 209 210 212 214 216 220 227 233 238
302 298 297 296 295 294 293 292 293 293 293 293 293 293 292 292 291 289 288 288 288 287 285 282 280 278 274 271 270 270 270 270 270 269 268 266 266 268 269 269 265 260 256 252 241 235 233 232 230 229 227 225 223 221 217 214 212 211 209 207 208 211 213 214 215 215 215 215 215 213 212 209 208 209 208 207 208 210 210 211 215 220 227 234 240
301 298 297 296 295 294 292 291 291 290 289 289 288 288 289 291 291 291 289 287 285 282 277 274 273 273 269 266 265 266 267 268 267 266 264 261 257 257 258 258 258 258 256 246 234 231 231 231 229 227 225 223 221 217 213 210 210 209 208 206 205 207 210 213 214 214 214 213 211 208 208 208 208 207 206 206 208 209 209 211 216 220 227 233 239
301 298 296 295 294 293 292 290 290 288 287 286 284 282 282 283 286 289 289 284 279 274 268 263 261 260 260 261 262 261 263 264 264 264 262 259 254 253 251 248 249 252 247 235 229 229 230 229 229 227 225 223 221 215 210 208 208 209 210 210 207 204 207 212 215 214 212 211 209 206 206 206 205 204 204 204 206 207 209 212 215 220 226 232 237
303 299 296 295 293 291 290 289 288 286 285 283 282 282 281 281 282 285 287 287 287 286 284 279 273 266 261 258 255 254 255 258 259 259 260 258 253 251 250 248 249 249 241 232 230 230 229 227 227 227 225 223 219 214 209 207 207 209 211 212 210 206 206 210 213 213 210 209 207 206 206 205 203 203 203 203 203 206 208 211 216 221 227 233 238
306 302 298 296 293 290 289 288 286 285 284 283 282 281 281 282 283 282 282 284 286 289 290 289 290 288 279 269 262 257 255 257 260 259 257 255 251 248 246 244 245 245 238 232 230 231 229 227 226 226 224 220 216 213 211 209 208 209 211 213 212 209 208 208 211 212 211 208 206 206 206 205 204 203 203 203 203 205 207 210 217 223 229 236 241
308 304 301 299 295 292 290 288 286 285 283 282 283 282 281 282 282 281 281 281 282 285 287 287 292 296 293 286 282 271 257 254 258 260 256 250 247 245 240 235 236 240 237 231 230 231 231 228 225 223 220 216 213 212 212 211 210 211 213 215 214 212 209 207 208 211 211 208 207 207 206 205 203 201 201 201 202 204 207 211 217 224 230 237 243
309 306 305 304 303 300 296 292 290 289 286 283 283 282 280 280 280 280 280 280 280 283 285 285 287 291 291 292 295 288 269 257 255 257 254 248 246 245 239 231 233 239 238 234 232 230 227 224 221 218 215 212 211 211 212 211 211 211 213 215 216 215 212 210 210 212 211 207 207 207 206 203 201 200 200 201 201 203 207 212 217 224 230 237 245
311 309 308 309 309 307 303 300 298 296 292 287 284 282 281 281 280 280 280 281 282 283 284 284 284 286 290 295 297 291 279 268 259 257 256 252 249 248 239 230 231 238 239 235 233 229 224 220 216 213 212 212 211 211 211 210 210 211 213 215 214 213 212 211 210 211 209 207 207 207 204 201 201 201 201 202 202 205 209 212 218 225 231 239 249
314 311 310 311 312 310 307 305 303 301 297 292 287 285 283 282 281 280 280 282 283 283 283 283 283 281 283 291 297 292 279 271 266 264 264 261 259 253 237 227 229 237 240 236 233 231 225 216 209 208 211 212 210 210 210 211 213 215 217 216 214 211 210 211 210 208 207 207 206 204 201 201 201 201 201 202 204 208 211 214 220 227 234 243 254
317 314 313 315 316 314 312 309 305 302 300 297 294 290 286 283 283 283 282 281 284 285 284 283 283 279 275 277 284 289 284 277 273 272 271 269 267 259 239 228 229 236 238 235 233 232 226 215 208 209 211 210 208 210 214 216 219 220 219 219 217 213 211 211 210 208 206 206 204 202 200 200 200 199 200 203 206 209 213 217 223 230 238 247 257
322 320 320 320 320 318 315 312 309 308 306 304 302 298 295 294 293 292 290 286 284 285 285 284 286 286 282 277 278 284 287 285 279 273 272 272 271 262 244 233 232 234 235 234 234 231 221 212 211 211 209 206 208 215 219 220 222 223 222 220 217 213 210 208 207 207 205 203 200 198 197 196 196 197 200 205 208 211 216 221 227 236 244 252 260
329 327 327 327 327 325 321 319 319 317 314 311 309 305 303 302 300 297 294 290 286 285 285 286 289 293 292 287 282 282 286 287 282 273 269 270 270 261 246 235 230 229 230 234 235 229 220 215 215 215 211 209 213 221 225 225 226 225 223 220 215 211 208 205 204 203 202 198 196 194 193 193 194 196 201 206 210 213 219 226 232 241 249 258 267
338 335 332 331 331 330 329 329 329 327 324 320 318 315 311 308 304 300 296 294 293 290 289 291 298 302 299 292 287 285 287 290 287 278 269 266 265 258 244 232 227 226 229 235 238 236 232 228 225 221 219 219 220 225 231 233 230 226 223 219 213 208 205 202 199 197 195 193 191 190 190 191 193 197 202 207 212 217 224 231 238 246 255 265 274
341 338 335 334 335 336 335 334 332 331 330 329 328 326 321 314 308 305 302 299 299 297 293 293 299 301 298 293 293 295 296 296 293 284 273 265 262 256 242 231 226 226 230 236 241 242 237 231 225 221 219 218 217 220 228 231 229 226 222 214 206 201 199 198 196 193 190 189 188 188 189 192 195 199 205 210 215 222 228 235 243 252 262 271 277
347 346 345 345 345 345 343 340 336 335 335 335 334 334 333 327 319 314 311 308 308 308 306 304 301 297 295 297 299 302 303 301 296 288 274 262 257 252 241 231 226 226 229 235 239 235 226 221 219 217 213 207 205 208 215 217 216 215 211 203 195 192 192 192 191 188 187 187 187 188 190 193 196 202 208 214 220 226 232 239 248 258 267 275 280
359 359 358 355 353 352 351 349 347 346 346 344 341 340 341 340 335 330 325 321 318 315 311 308 304 300 301 305 306 305 304 301 295 281 259 245 241 241 237 231 227 227 230 232 228 219 213 212 212 207 200 195 194 195 194 188 182 184 186 186 184 184 183 182 182 183 184 186 188 189 191 195 199 205 212 218 224 230 236 243 253 263 272 278 281
10 11 8 5 4 2 0 358 357 356 356 355 353 349 347 345 342 336 329 323 319 316 311 307 306 307 310 313 311 308 304 298 283 256 236 228 228 230 229 227 226 224 220 213 208 203 200 199 197 192 188 186 184 178 170 165 165 168 171 172 174 176 176 176 178 180 181 184 188 190 192 197 202 208 216 221 227 233 240 248 258 268 275 279 281
18 19 18 17 15 13 10 9 9 7 5 5 3 1 360 357 354 351 345 338 332 329 324 320 317 316 316 318 319 318 310 289 253 227 216 215 218 220 218 213 207 200 192 186 183 180 177 176 177 177 175 173 169 164 161 161 163 165 167 168 170 172 173 174 177 179 181 185 188 190 194 201 206 212 220 225 230 238 245 253 263 273 276 279 284
23 25 26 26 25 24 21 20 18 16 15 14 13 12 12 11 10 9 6 2 359 356 351 345 340 334 330 333 347 0 351 237 202 181 165 157 161 169 173 173 170 165 159 154 152 153 154 157 159 160 159 159 158 158 159 161 163 164 165 166 166 167 170 173 176 179 182 186 190 192 198 203 207 213 222 228 234 245 254 260 268 274 275 279 288
27 30 31 31 31 31 31 30 28 26 24 23 22 21 21 20 20 21 21 18 17 15 13 11 10 10 12 27 54 79 97 113 120 116 110 110 121 131 136 139 141 140 137 136 137 139 142 145 147 149 149 150 151 153 155 157 158 159 160 161 163 166 169 172 176 180 183 187 191 194 199 204 210 218 227 234 241 251 259 263 267 272 276 283 292
30 33 35 36 37 37 36 36 36 35 33 31 29 28 27 27 27 28 30 31 32 31 29 29 31 36 45 59 71 83 92 98 101 105 110 114 120 125 128 130 131 131 132 133 135 137 138 140 141 142 143 145 147 149 150 152 153 154 156 158 161 165 169 171 175 180 183 187 192 195 199 207 215 222 231 239 245 251 259 264 269 276 283 288 293